[[{"header":{"parameterUnit":"m.s-1","parameterCategory":1,"la1":30.2991,"la2":30.254,"lo1":-89.0895,"lo2":-89.0444,"dy":0.0017,"dx":0.0017,"nx":28,"ny":28,"refTime":"2023-07-22T21:00:00:Z","depth":0,"parameterNumber":2,"parameterNumberName":"U-component_of_WINDS"},"data":[0,0,0,0,0,0,0,0,0,0,0,0,0,0,0,0,0,0,0,0,0,0,0,0,0,0,0,0,0,0,0,0,0,0,0,0,0,0,0,0,0,0,0,0,0,0,0,0,0,0,0,0,0,0,0,0,0,0,-0.3173,-0.3171,0,-0.3019,-0.3017,-0.3015,-0.2997,-0.2998,-0.3,-0.3001,-0.2836,-0.2831,-0.2825,0,0,0,0,0,0,0,0,0,0,0,0,0,-0.3445,-0.344,-0.3173,-0.3171,-0.3169,-0.3019,-0.3017,-0.3015,-0.2997,-0.2998,-0.3,-0.3002,-0.2838,-0.2831,-0.2824,0,0,0,0,0,0,0,0,0,0,0,0,0,-0.3312,-0.3438,-0.3173,-0.3142,-0.3138,-0.3019,-0.3017,-0.3014,-0.2996,-0.2998,-0.3001,-0.3003,-0.2841,-0.2832,-0.2823,-0.2723,0,0,-0.2797,-0.2793,0,0,0,0,0,0,0,0,-0.3319,-0.3302,-0.3149,-0.3144,-0.3139,-0.3029,-0.3052,-0.2916,-0.2996,-0.305,-0.3001,-0.3004,-0.2898,-0.2885,-0.2851,-0.2715,-0.2708,-0.2796,-0.2791,-0.2787,-0.2784,0,0,0,0,0,0,0,-0.3329,-0.3308,-0.3112,-0.3146,-0.314,-0.3133,-0.3117,-0.3026,-0.2963,-0.3045,-0.3044,-0.3026,-0.2896,-0.2859,-0.2847,-0.2706,-0.2796,-0.2788,-0.2783,-0.278,-0.2479,-0.2476,0,0,0,0,0,0,-0.3345,-0.3316,-0.3116,-0.3107,-0.3237,-0.3127,-0.3108,-0.3062,-0.2964,-0.2951,-0.3024,-0.3026,-0.2873,-0.2857,-0.2841,-0.2716,-0.2787,-0.2779,-0.2774,-0.2481,-0.2478,-0.2475,0,0,0,0,0,0,-0.3351,-0.3327,-0.3123,-0.3211,-0.3185,-0.312,-0.3068,-0.3058,-0.3021,-0.2948,-0.2936,-0.2999,-0.2874,-0.2853,-0.2753,-0.271,-0.2775,-0.2767,-0.2485,-0.248,-0.2476,-0.2467,0,0,0,0,0,0,-0.3358,-0.3329,-0.3292,-0.3211,-0.318,-0.304,-0.3065,-0.3053,-0.3007,-0.3007,-0.2921,-0.2908,-0.2874,-0.2766,-0.2744,-0.2699,-0.276,-0.2488,-0.2483,-0.2478,-0.2471,-0.2463,-0.2456,0,0,0,0,0,-0.3368,-0.3295,-0.3291,-0.3267,-0.3133,-0.3037,-0.3019,-0.2984,-0.3004,-0.2965,-0.2917,-0.2911,-0.2718,-0.2756,-0.2731,-0.2683,-0.2491,-0.2484,-0.2478,-0.2474,-0.2464,-0.2456,0,0,0,0,0,0,-0.3371,-0.3283,-0.3278,-0.3176,-0.3115,-0.3034,-0.2985,-0.2975,-0.2905,-0.2908,-0.2864,-0.2845,-0.2746,-0.2704,-0.2747,-0.258,-0.2606,-0.2595,-0.2611,-0.2602,-0.2595,-0.2606,-0.2753,0,0,0,0,0,-0.336,-0.3292,-0.3218,-0.3135,-0.3105,-0.305,-0.3007,-0.2985,-0.2918,-0.2891,-0.2837,-0.277,-0.2695,-0.2646,-0.2572,-0.2464,-0.2444,-0.2419,-0.2412,-0.2406,-0.2397,-0.2335,-0.2323,-0.2455,-0.2455,-0.2455,0,0,-0.3337,-0.328,-0.3239,-0.3134,-0.3084,-0.3012,-0.3028,-0.2952,-0.2897,-0.2879,-0.2782,-0.2739,-0.2661,-0.2557,-0.2508,-0.2519,-0.2356,-0.2398,-0.2394,-0.2388,-0.2327,-0.2315,-0.2304,-0.2451,-0.2451,-0.2452,0,0,-0.3257,-0.3208,-0.3133,-0.3083,-0.3007,-0.2971,-0.2953,-0.2873,-0.2845,-0.2747,-0.2732,-0.2665,-0.2536,-0.2481,-0.2436,-0.2334,-0.2325,-0.2311,-0.2274,-0.2214,-0.2204,-0.2194,-0.2157,-0.2144,-0.2302,-0.2302,-0.2302,0,-0.3236,-0.313,-0.3095,-0.302,-0.2973,-0.2955,-0.2878,-0.2829,-0.2732,-0.2699,-0.2714,-0.2551,-0.2497,-0.2379,-0.2355,-0.2319,-0.2296,-0.2321,-0.2209,-0.2199,-0.2189,-0.2153,-0.2139,-0.2301,-0.2301,-0.2301,-0.2301,0,-0.3108,-0.3034,-0.2982,-0.2892,-0.2839,-0.2763,-0.2714,-0.2664,-0.2646,-0.2608,-0.2507,-0.2442,-0.2355,-0.2325,-0.2306,-0.2203,-0.2212,-0.2218,-0.2243,-0.2176,-0.2141,-0.2127,-0.2299,-0.23,-0.23,-0.23,0,0,-0.3027,-0.2918,-0.2899,-0.2857,-0.2771,-0.2712,-0.2634,-0.2551,-0.2508,-0.2441,-0.2373,-0.2264,-0.2269,-0.2218,-0.2192,-0.214,-0.2062,-0.2151,-0.2149,-0.2137,-0.1943,-0.194,-0.1925,-0.2056,-0.2053,-0.2051,-0.195,0,-0.2937,-0.28,-0.2766,-0.2647,-0.2578,-0.2559,-0.249,-0.2429,-0.239,-0.2323,-0.228,-0.2203,-0.2215,-0.2184,-0.2132,-0.2083,-0.2023,-0.209,-0.199,-0.1987,-0.201,-0.1907,-0.1902,-0.181,-0.1936,-0.1934,-0.1932,0,-0.2814,-0.2747,-0.2622,-0.2545,-0.2514,-0.2454,-0.2374,-0.2311,-0.224,-0.2215,-0.2158,-0.2137,-0.2052,-0.2082,-0.1963,-0.201,-0.1966,-0.1936,-0.1931,-0.192,-0.1955,-0.1892,-0.178,-0.1766,-0.191,-0.1912,-0.1914,0,-0.2767,-0.2644,-0.2554,-0.2519,-0.2426,-0.2384,-0.2343,-0.2274,-0.2226,-0.2155,-0.2123,-0.2042,-0.1998,-0.1934,-0.1891,-0.1917,-0.1775,-0.1802,-0.1751,-0.1752,-0.1722,-0.1724,-0.1601,-0.1694,-0.1695,-0.1695,-0.1695,0,-0.267,-0.2594,-0.2531,-0.2476,-0.239,-0.235,-0.2265,-0.2223,-0.2162,-0.2096,-0.2073,-0.2011,-0.1958,-0.1888,-0.1853,-0.1759,-0.1739,-0.1716,-0.1707,-0.1717,-0.172,-0.1688,-0.1693,-0.1691,-0.1692,-0.1693,-0.1693,0,-0.2603,-0.2558,-0.2458,-0.2379,-0.2357,-0.2297,-0.2228,-0.2171,-0.2132,-0.2048,-0.2026,-0.1964,-0.188,-0.1831,-0.1724,-0.1701,-0.1597,-0.1591,-0.1621,-0.1618,-0.1569,-0.1574,-0.142,-0.1398,-0.1507,-0.1506,-0.1505,0,-0.2544,-0.2486,-0.24,-0.2356,-0.2315,-0.2243,-0.2193,-0.2151,-0.21,-0.2014,-0.1968,-0.1883,-0.1813,-0.168,-0.1623,-0.1541,-0.1533,-0.1485,-0.152,-0.1532,-0.1531,-0.1535,-0.1528,-0.1479,-0.1478,-0.1477,-0.1476,0,-0.2444,-0.2425,-0.2356,-0.2279,-0.2221,-0.2158,-0.2095,-0.2058,-0.2005,-0.1948,-0.1864,-0.181,-0.1702,-0.1617,-0.153,-0.1485,-0.1471,-0.1466,-0.1449,-0.1459,-0.1479,-0.1467,-0.1604,-0.1469,-0.147,-0.1471,-0.1471,-0.1471,-0.2379,-0.2326,-0.2258,-0.2181,-0.2129,-0.207,-0.2014,-0.1968,-0.1897,-0.1807,-0.1786,-0.1696,-0.1624,-0.1507,-0.1459,-0.1387,-0.1395,-0.1371,-0.1365,-0.136,-0.1358,-0.1491,-0.1371,-0.1371,-0.1371,-0.1371,-0.1371,0,-0.2278,-0.2233,-0.2163,-0.2076,-0.2015,-0.2009,-0.1938,-0.1887,-0.1809,-0.1745,-0.1677,-0.1578,-0.1496,-0.1433,-0.1348,-0.1302,-0.1293,-0.1281,-0.1283,-0.1273,-0.1356,-0.1379,-0.1289,-0.1289,-0.1289,-0.1289,-0.1289,-0.1289,-0.2218,-0.2127,-0.2099,-0.1982,-0.1936,-0.185,-0.181,-0.1755,-0.1703,-0.1595,-0.1527,-0.1488,-0.1422,-0.1332,-0.1256,-0.1239,-0.1208,-0.1197,-0.1179,-0.1258,-0.1267,-0.1275,-0.1296,-0.1191,-0.119,-0.1101,-0.11,-0.1099]},{"header":{"parameterUnit":"m.s-1","parameterCategory":1,"la1":30.2991,"la2":30.254,"lo1":-89.0895,"lo2":-89.0444,"dy":0.0017,"dx":0.0017,"nx":28,"ny":28,"refTime":"2023-07-22T21:00:00:Z","depth":0,"parameterNumber":3,"parameterNumberName":"V-component_of_WINDS"},"data":[0,0,0,0,0,0,0,0,0,0,0,0,0,0,0,0,0,0,0,0,0,0,0,0,0,0,0,0,0,0,0,0,0,0,0,0,0,0,0,0,0,0,0,0,0,0,0,0,0,0,0,0,0,0,0,0,0,0,2.8011,2.8013,0,2.8148,2.8149,2.8151,2.8033,2.8028,2.8023,2.8019,2.8154,2.8162,2.817,0,0,0,0,0,0,0,0,0,0,0,0,0,2.7644,2.7652,2.8011,2.8013,2.8015,2.8147,2.8149,2.8151,2.8034,2.8028,2.8022,2.8016,2.8151,2.8161,2.8171,0,0,0,0,0,0,0,0,0,0,0,0,0,2.7795,2.7654,2.8011,2.7972,2.797,2.8147,2.8149,2.8152,2.8035,2.8028,2.802,2.8014,2.8148,2.816,2.8172,2.8393,0,0,2.8209,2.8214,0,0,0,0,0,0,0,0,2.7786,2.7808,2.7976,2.7975,2.7973,2.8066,2.8069,2.8232,2.8037,2.801,2.8018,2.801,2.813,2.8143,2.8185,2.8399,2.8405,2.821,2.8218,2.8223,2.8226,0,0,0,0,0,0,0,2.7776,2.7802,2.8065,2.7979,2.7977,2.7946,2.796,2.81,2.8109,2.8012,2.8004,2.8022,2.8128,2.8173,2.8187,2.8407,2.821,2.8221,2.8228,2.8233,2.8809,2.8816,0,0,0,0,0,0,2.777,2.7794,2.8061,2.8069,2.786,2.7959,2.7974,2.8043,2.8107,2.811,2.8028,2.8016,2.8156,2.8173,2.8191,2.8454,2.8223,2.8234,2.8241,2.8801,2.881,2.8819,0,0,0,0,0,0,2.7763,2.7795,2.8055,2.7929,2.796,2.7973,2.8052,2.805,2.8095,2.8119,2.812,2.8073,2.8151,2.8174,2.8344,2.8457,2.824,2.8251,2.8791,2.8804,2.8815,2.8981,0,0,0,0,0,0,2.7753,2.7793,2.7878,2.7932,2.7967,2.8207,2.8059,2.8058,2.8117,2.8103,2.8162,2.8165,2.8147,2.8326,2.8356,2.847,2.826,2.8781,2.8797,2.8811,2.8966,2.8998,2.9025,0,0,0,0,0,2.774,2.7919,2.7883,2.7916,2.8074,2.8214,2.8234,2.8211,2.8127,2.8212,2.8227,2.8163,2.844,2.8345,2.8377,2.8496,2.8774,2.8792,2.881,2.8953,2.8991,2.9024,0,0,0,0,0,0,2.7876,2.7925,2.7886,2.8088,2.8148,2.8194,2.83,2.8253,2.8337,2.832,2.8287,2.8301,2.848,2.8505,2.8398,2.8713,2.8593,2.8618,2.8691,2.8728,2.8757,2.8746,2.827,0,0,0,0,0,2.793,2.8041,2.8077,2.8252,2.8284,2.8288,2.8348,2.8325,2.8385,2.8409,2.8437,2.8497,2.8597,2.8663,2.8757,2.8969,2.898,2.9067,2.9096,2.912,2.9142,2.9256,2.9295,2.8878,2.8878,2.8878,0,0,2.8042,2.8082,2.8154,2.828,2.8324,2.8438,2.831,2.8436,2.852,2.8428,2.859,2.8613,2.8677,2.8869,2.8954,2.8895,2.926,2.9143,2.9162,2.9171,2.9278,2.9318,2.9353,2.889,2.8888,2.8886,0,0,2.8304,2.8346,2.8496,2.8543,2.8612,2.8613,2.8649,2.8703,2.8715,2.8878,2.8811,2.8909,2.9083,2.9132,2.9179,2.946,2.9404,2.9491,2.9645,2.9756,2.9789,2.9818,2.9918,2.9954,2.9513,2.9514,2.9514,0,2.8434,2.8605,2.8579,2.8711,2.8768,2.8692,2.8843,2.8889,2.8984,2.9024,2.8957,2.9173,2.9211,2.9413,2.9482,2.9523,2.9562,2.9484,2.9786,2.9815,2.9842,2.9937,2.9974,2.9524,2.9523,2.9522,2.9521,0,2.8761,2.888,2.8993,2.9089,2.9158,2.9299,2.9293,2.9367,2.9339,2.9347,2.9513,2.9555,2.9656,2.9702,2.9675,2.9901,2.9862,2.9791,2.967,2.9892,2.9981,3.0017,2.9539,2.9535,2.9532,2.9529,0,0,2.9112,2.9192,2.9234,2.9277,2.9347,2.9438,2.9575,2.9675,2.9739,2.9807,2.992,3.0069,3.0004,3.0058,3.0035,3.0133,3.0353,3.005,3.0051,3.0105,3.0603,3.0656,3.0698,3.0316,3.0323,3.0328,3.0597,0,2.9376,2.9616,2.9597,2.9823,2.9933,2.9863,2.9981,3.0037,3.0048,3.0141,3.0152,3.0259,3.0165,3.0198,3.0291,3.0306,3.0452,3.0286,3.0419,3.0425,3.0406,3.0745,3.0801,3.1053,3.0632,3.0638,3.0642,0,2.9717,2.9799,3.0037,3.0091,3.0136,3.0244,3.0334,3.0425,3.0486,3.0487,3.0548,3.0509,3.0645,3.0521,3.0708,3.0596,3.0649,3.0665,3.0674,3.0685,3.0547,3.0765,3.1133,3.1171,3.0696,3.0692,3.0688,0,2.9949,3.0119,3.0283,3.0321,3.0389,3.0466,3.0497,3.0551,3.0613,3.0691,3.073,3.0823,3.0874,3.0946,3.0933,3.0844,3.1124,3.0998,3.1127,3.1128,3.1189,3.1186,3.1571,3.1224,3.1224,3.1223,3.1222,0,3.0246,3.0394,3.0388,3.0489,3.0653,3.0629,3.0791,3.0812,3.0861,3.0964,3.0908,3.1005,3.0982,3.1078,3.1069,3.1225,3.1248,3.1252,3.1247,3.1257,3.1257,3.1291,3.1274,3.1233,3.1231,3.1229,3.1227,0,3.0533,3.0535,3.0709,3.0759,3.0775,3.0894,3.0935,3.103,3.1037,3.1168,3.1197,3.1207,3.1318,3.1312,3.1436,3.143,3.1622,3.1597,3.1603,3.1597,3.1727,3.1715,3.2148,3.2204,3.182,3.1824,3.1827,0,3.0722,3.0835,3.0898,3.0964,3.1001,3.1107,3.117,3.1151,3.1219,3.1297,3.1382,3.1488,3.1571,3.1751,3.1768,3.1863,3.184,3.1985,3.1854,3.186,3.1842,3.1836,3.1847,3.2011,3.2016,3.2019,3.2022,0,3.1058,3.1054,3.1148,3.1244,3.1322,3.1395,3.1462,3.1519,3.1506,3.1585,3.1699,3.1764,3.1892,3.1997,3.2088,3.2117,3.2069,3.2063,3.2098,3.2109,3.2108,3.2111,3.1673,3.2053,3.205,3.2048,3.2046,3.2045,3.1302,3.1399,3.1459,3.1566,3.1615,3.168,3.1771,3.1791,3.1885,3.199,3.1971,3.2099,3.2156,3.2273,3.2312,3.241,3.2357,3.2408,3.2421,3.2434,3.2449,3.2093,3.2426,3.2425,3.2424,3.2423,3.2423,0,3.1636,3.1671,3.177,3.1867,3.1951,3.1899,3.1971,3.2044,3.2157,3.2216,3.23,3.243,3.2532,3.2558,3.2656,3.2729,3.2709,3.2756,3.275,3.2758,3.249,3.245,3.2771,3.2771,3.277,3.277,3.277,3.277,3.1819,3.1981,3.1984,3.2169,3.2202,3.2328,3.2374,3.2433,3.2479,3.2628,3.2714,3.273,3.2776,3.2876,3.2967,3.2972,3.3011,3.3067,3.3063,3.2812,3.2777,3.2744,3.2706,3.3075,3.3076,3.3323,3.3325,3.3327]}]]